DELTA 1 DEB, 5971

Orbit data source: Space-Track

DELTA 1 DEB, 5971 is space debris in SSO originally from a launch on Thu, 26 Jan 1967 UTC launched from the Air Force Western Test Range (AFWTR). Debris objects in space refer to the collection of defunct objects orbiting the Earth. Examples of debris include non-operational satellites, rocket bodies, and fragments generated from explosions, collisions, or faulty payload assembly.

Loading next visibility...
Identifier
5971, 1967-006E
Orbit
SSO
Country
Flag of USUS
Related business
Manufacturer
Unknown
Mission
Spacecraft
Bus & Motor
Unknown
Mass
Unknown
Launch date (UTC)
1967-01-26 (59 years ago)
Launch vehicle
Unknown
Launch site
Air Force Western Test Range (AFWTR)
Object type
Payload
Rocket body
Debris
Shape & HBR
Unknown shape, 0.1 m
Radar Cross Section
Small (<0.1 m²)

Expand to show TLE details & history
Last TLE update: 10 hours ago

TLE from 10 hours ago
0 DELTA 1 DEB
1 05971U 67006E   25286.75852823 -.00000004  00000-0  20615-3 0  9996
2 05971 101.9220 215.2901 0113080  99.4399 290.6473 12.73473093729722
Epoch: 2025-10-13T18:12Z
TLE epoch observation values (Epoch: 2025-10-13T18:12:16.839Z)
Latitude
28.23275°
Longitude
-86.81349°
Altitude
1,341.01 km
Speed
7.204 km/s
True Right ascension
13h 55m 15s
True Declination
28° 06' 02"
Sunlit
Object was in daylight at epoch
Visualization orbit readout
Latitude
Unknown
Longitude
Unknown
Altitude
Unknown
Speed
Unknown
Apparent Right ascension
Unknown
Apparent Declination
Unknown
Sunlit
N/A
Visualization observer readout
Local Sidereal Time
23:10:04
Azimuth
Unknown
Elevation
Unknown
Doppler factor
Unknown
Orbital elements
Apogee altitude
1,452.914 km
Perigee altitude
1,277.787 km
Semi-major axis
7,743.487 km
Eccentricity
0.01131
Inclination
101.922°
RAAN
215.2901°
Arg. of periapsis
99.4399°
True anomaly
289.42875°
Mean anomaly
290.6473°
Eccentric anomaly
290.03862°
Mean motion
3.18521 °/min
Orbital period
113.02 mins
BSTAR
0.00020615
Loading maneuver chart data...
Computing Atmospheric mass density...
Loading historical data...
Loading historical data...
Loading historical data...
Loading historical data...
Loading historical data...
Loading historical data...
Loading historical data...
Other satellites on launch #6 in the year 1967 (1967-01-26 UTC)

Documentation

Showing up to 5 results
|